Flag for Pakistan Weather past 2 weeks in Faisalabad, Pakistan

Now
84 °F

Passing clouds.


Feels Like: 85 °F
Forecast: 73 / 100 °F
Wind: 3 mph from Northeast

Location: Lahore Airport


UV Index: 7 (High)

Visibility: 3 mi


Pressure: 29.77 "Hg

Humidity: 48%

Dew point: 63 °F

Location of FaisalabadLocation

Historic Weather in Faisalabad

°F

Faisalabad temperature yesterday

Maximum temperature yesterday: 97 °F (at 3:55 PM)
Minimum temperature yesterday: 70 °F (at 4:30 AM)
Average temperature yesterday: 83 °F

Past Weeks' High & Low Weather Summary

 TemperatureHumidityPressure
High99 °F (Apr 24, 1:55 PM)100% (Apr 18, 4:55 PM)30.01 "Hg (Apr 18, 4:55 PM)
Low59 °F (Apr 19, 1:55 AM)22% (Apr 10, 4:55 PM)29.71 "Hg (Apr 24, 3:25 PM)
Average78 °F54%29.87 "Hg
* Reported Apr 9 10:25 PM — Apr 24 10:55 PM, Faisalabad, Weather by CustomWeather, © 2014

Note: Actual official high and low records may vary slightly from our data, if they occured in-between our weather recording intervals... More about our weather records

Advertising

Historic Weather Conditions — Data for Previous 24 hours

 ConditionsComfort  
Time TempWeatherWind HumidityBarometerVisibility
10:55 PM
Apr 24
84 °FPassing clouds.No wind48%29.77 "Hg3 mi
10:25 PM86 °FPassing clouds.No wind43%29.77 "Hg3 mi
9:55 PM86 °FPassing clouds.No wind43%29.77 "Hg3 mi
9:25 PM88 °FPassing clouds.No wind40%29.74 "Hg3 mi
8:55 PM88 °FPassing clouds.No wind40%29.77 "Hg3 mi
8:25 PM90 °FPassing clouds.No wind38%29.74 "Hg3 mi
7:55 PM90 °FPassing clouds.No wind38%29.71 "Hg3 mi
7:25 PM90 °FPassing clouds.No wind38%29.71 "Hg4 mi
6:55 PM93 °FPassing clouds.5 mph36%29.71 "Hg4 mi
6:25 PM95 °FScattered clouds.6 mph34%29.71 "Hg4 mi
5:55 PM95 °FScattered clouds.5 mph34%29.71 "Hg4 mi
4:59 PM97 °FScattered clouds.3 mph34%29.71 "Hg5 mi
4:30 PM97 °FScattered clouds.8 mph32%29.71 "Hg5 mi
3:59 PM99 °FScattered clouds.3 mph31%29.71 "Hg5 mi
3:25 PM99 °FScattered clouds.6 mph33%29.71 "Hg5 mi
2:55 PM99 °FExtremely hot.7 mph33%29.74 "Hg5 mi
2:30 PM99 °FPassing clouds.6 mph35%29.74 "Hg5 mi
1:55 PM99 °FClear.8 mph22%29.77 "Hg5 mi
1:30 PM97 °FClear.9 mph44%29.77 "Hg5 mi
12:55 PM95 °FClear.3 mph44%29.80 "Hg5 mi
12:25 PM93 °FClear.6 mph47%29.80 "Hg5 mi
11:55 AM93 °FClear.8 mph47%29.80 "Hg5 mi
11:30 AM91 °FClear.3 mph49%29.83 "Hg5 mi
11:00 AM90 °FClear.7 mph49%29.83 "Hg4 mi
10:30 AM88 °FClear.6 mph52%29.83 "Hg4 mi
10:00 AM86 °FClear.No wind55%29.80 "Hg4 mi
9:30 AM82 °FClear.No wind55%29.80 "Hg3 mi
9:00 AM82 °FClear.No wind55%29.80 "Hg3 mi
8:30 AM79 °FClear.No wind58%29.80 "Hg2 mi
7:55 AM75 °FClear.No wind61%29.80 "Hg2 mi
7:25 AM73 °FClear.No wind69%29.80 "Hg2 mi
6:55 AM73 °FClear.2 mph69%29.80 "Hg2 mi
6:25 AM72 °FClear.2 mph78%29.80 "Hg2 mi
5:55 AM72 °FClear.5 mph78%29.80 "Hg2 mi
4:55 AM72 °FClear.3 mph78%29.80 "Hg2 mi
4:25 AM73 °FClear.No wind74%29.80 "Hg2 mi
3:55 AM73 °FClear.No wind74%29.80 "Hg2 mi
3:25 AM75 °FClear.No wind69%29.80 "Hg2 mi
2:55 AM75 °FClear.No wind69%29.80 "Hg2 mi
2:25 AM77 °FClear.No wind65%29.80 "Hg2 mi
1:55 AM77 °FClear.No wind65%29.80 "Hg2 mi
1:25 AM79 °FClear.No wind61%29.80 "Hg2 mi
12:55 AM79 °FClear.No wind61%29.80 "Hg2 mi
12:25 AM81 °FClear.No wind58%29.80 "Hg2 mi
11:55 PM
Apr 23
81 °FClear.No wind58%29.83 "Hg2 mi
11:25 PM82 °FClear.No wind58%29.83 "Hg2 mi
Weather by CustomWeather, © 2014

See weather overview